Weather History for McComb, MS

Change the Weather History Date:

Friday, January 17, 2014

  Actual Average Record
Temperature  
Mean Temperature 43 °F -  
Max Temperature 54 °F 59 °F 75 °F (1990)
Min Temperature 28 °F 37 °F 11 °F (1977)
Degree Days  
Heating Degree Days 22    
Moisture  
Dew Point 25 °F    
Average Humidity 55    
Maximum Humidity 86    
Minimum Humidity 20    
Precipitation  
Precipitation 0.00 in - - ()
Sea Level Pressure  
Sea Level Pressure 30.18 in    
Wind  
Wind Speed 6 mph (WNW)    
Max Wind Speed 20 mph    
Max Gust Speed 28 mph    
Visibility 10 miles    
Events      
Averages and records for this station are not official NWS values.
T = Trace of Precipitation, MM = Missing Value Source: NWS Daily Summary

Daily Weather History Graph

Daily Weather History Graph

Search for Another Location

Airport:

Trip Planner

Search our weather history database for the weather conditions in past years. The results will help you decide how hot, cold, wet, or windy it might be!

Date:

Astronomy

Jan. 17, 2014 Rise Set
Actual Time 7:00 AM CST 5:23 PM CST
Civil Twilight 6:34 AM CST 5:49 PM CST
Nautical Twilight 6:04 AM CST 6:19 PM CST
Astronomical Twilight 5:35 AM CST 6:48 PM CST
Moon 7:00 PM CST (1/17) 7:36 AM CST (1/17)
Length of Visible Light 11h 15m
Length of Day
10h 23m
Full, 98% of the Moon is Illuminated
Jan 17
Full
Jan 23
Last Quarter
Jan 30
New
Feb 6
First Quarter
Feb 14
Full

Hourly Weather History & Observations

Time (CST) Temp. Windchill Dew Point Humidity Pressure Visibility Wind Dir Wind Speed Gust Speed Precip Events Conditions
12:53 AM 45.0 °F 41.8 °F 39.9 °F 82% 30.07 in 10.0 mi SW 5.8 mph - N/A   Clear
1:53 AM 44.1 °F 40.8 °F 39.9 °F 85% 30.10 in 10.0 mi West 5.8 mph - N/A   Clear
2:53 AM 44.1 °F 41.5 °F 39.0 °F 82% 30.09 in 10.0 mi West 4.6 mph - N/A   Clear
3:53 AM 43.0 °F 40.3 °F 37.9 °F 82% 30.10 in 10.0 mi WNW 4.6 mph - N/A   Clear
4:53 AM 42.1 °F 39.2 °F 37.9 °F 85% 30.11 in 10.0 mi WNW 4.6 mph - N/A   Clear
5:53 AM 44.1 °F 41.5 °F 36.0 °F 73% 30.13 in 10.0 mi WNW 4.6 mph - N/A   Clear
6:53 AM 39.9 °F - 35.1 °F 83% 30.14 in 10.0 mi Calm Calm - N/A   Clear
7:53 AM 39.0 °F - 35.1 °F 86% 30.17 in 10.0 mi Calm Calm - N/A   Clear
8:53 AM 45.0 °F 41.8 °F 34.0 °F 65% 30.22 in 10.0 mi WNW 5.8 mph - N/A   Partly Cloudy
9:53 AM 46.9 °F - 27.0 °F 46% 30.22 in 10.0 mi NW 6.9 mph - N/A   Overcast
10:53 AM 48.0 °F - 21.0 °F 34% 30.21 in 10.0 mi NNW 9.2 mph - N/A   Mostly Cloudy
11:53 AM 53.1 °F - 19.9 °F 27% 30.19 in 10.0 mi NW 19.6 mph 25.3 mph N/A   Clear
12:53 PM 53.1 °F - 16.0 °F 23% 30.17 in 10.0 mi WNW 16.1 mph 27.6 mph N/A   Clear
1:53 PM 54.0 °F - 15.1 °F 22% 30.16 in 10.0 mi WNW 11.5 mph 21.9 mph N/A   Clear
2:53 PM 54.0 °F - 12.9 °F 20% 30.16 in 10.0 mi WNW 15.0 mph 25.3 mph N/A   Clear
3:53 PM 53.1 °F - 12.9 °F 20% 30.17 in 10.0 mi WNW 10.4 mph 18.4 mph N/A   Clear
4:53 PM 51.1 °F - 10.9 °F 20% 30.18 in 10.0 mi NW 9.2 mph - N/A   Clear
5:53 PM 43.0 °F 39.5 °F 16.0 °F 34% 30.20 in 10.0 mi NNW 5.8 mph - N/A   Clear
6:53 PM 41.0 °F 39.0 °F 16.0 °F 36% 30.22 in 10.0 mi NW 3.5 mph - N/A   Clear
7:53 PM 35.1 °F 31.0 °F 19.9 °F 54% 30.24 in 10.0 mi WNW 4.6 mph - N/A   Clear
8:53 PM 34.0 °F 29.8 °F 19.9 °F 56% 30.25 in 10.0 mi West 4.6 mph - N/A   Clear
9:53 PM 32.0 °F - 19.9 °F 61% 30.26 in 10.0 mi Calm Calm - N/A   Clear
10:53 PM 32.0 °F - 21.0 °F 64% 30.26 in 10.0 mi Calm Calm - N/A   Clear
11:53 PM 28.9 °F - 21.0 °F 72% 30.26 in 10.0 mi Calm Calm - N/A   Clear